Tracking 25709 objects as of 24-May-2022
HD Live streaming from Space Station
objects crossing your sky now

SPACEBEE-86

Track SPACEBEE-86 now!
10-day predictions


NORAD ID: 47704
Int'l Code: 2021-015F
Perigee: 464.6 km
Apogee: 477.5 km
Inclination: 97.4 °
Period: 93.9 minutes
Semi major axis: 6842 km
RCS: Unknown
Launch date: February 28, 2021
Source: United States (US)
Launch site: SRIHARIKOTA (SRI)
aabbcc
Your satellite tracking list
Your tracking list is empty




NASA's NSSDC Master Catalog

Two Line Element Set (TLE):
1 47704U 21015F   22143.16665989  .00058597  00000-0  17701-2 0  9995
2 47704  97.4148 220.5234 0009409 161.8998 198.2582 15.33995953 68370
Source of the keplerian elements: AFSPC